Location: Newark
(42.8481°N, 0.4872°E)
Time: 22:34:38
(UTC+00:00)

Transit 2A Rocket - Pass Details

Date: 30 October 2020
Orbit: 588 x 914 km, 66.7° (Epoch: 29 November)

Event Time Altitude Azimuth Distance (km) Brightness Sun altitude
Rises 18:03:22 0° 327° (NNW) 3,266 8.6 -13.5°
Reaches altitude 10° 18:05:54 10° 325° (NW) 2,281 7.8 -13.9°
Maximum altitude 18:11:03 71° 242° (WSW) 740 5.1 -14.9°
Drops below altitude 10° 18:15:41 10° 159° (SSE) 2,062 7.1 -15.7°
Sets 18:17:53 0° 157° (SSE) 2,927 7.8 -16.1°
